Time,TemperatureF,DewpointF,PressureIn,WindDirection,WindDirectionDegrees,WindSpeedMPH,WindSpeedGustMPH,Humidity,HourlyPrecipIn,Conditions,Clouds,dailyrainin,SoftwareType,DateUTC
2013-04-17 00:00:00,37.2,21.7,28.64,ESE,115,0.0,2.2,53,0.00,,---,0.00,VWS V14.01,2013-04-17 07:00:00,
2013-04-17 00:05:00,36.9,21.8,28.64,ESE,115,0.0,0.0,54,0.00,,---,0.00,VWS V14.01,2013-04-17 07:05:00,
2013-04-17 00:10:00,36.7,21.6,28.64,ESE,114,0.0,0.0,54,0.00,,---,0.00,VWS V14.01,2013-04-17 07:10:00,
2013-04-17 00:15:00,36.9,22.2,28.64,ESE,114,0.0,0.0,55,0.00,,---,0.00,VWS V14.01,2013-04-17 07:15:00,
2013-04-17 00:20:00,36.9,22.6,28.64,ESE,114,0.0,0.0,56,0.00,,---,0.00,VWS V14.01,2013-04-17 07:20:00,
2013-04-17 00:25:00,36.9,22.6,28.64,ESE,114,0.0,0.0,56,0.00,,---,0.00,VWS V14.01,2013-04-17 07:25:00,
2013-04-17 00:31:00,36.9,23.1,28.64,ESE,114,0.0,0.0,57,0.00,,---,0.00,VWS V14.01,2013-04-17 07:31:00,
2013-04-17 00:37:00,37.0,24.1,28.64,ESE,118,0.0,0.0,59,0.00,,---,0.00,VWS V14.01,2013-04-17 07:37:00,
2013-04-17 00:42:00,37.0,24.1,28.64,ESE,118,0.0,0.0,59,0.00,,---,0.00,VWS V14.01,2013-04-17 07:42:00,
2013-04-17 00:48:00,37.2,24.6,28.64,ESE,118,0.0,0.0,60,0.00,,---,0.00,VWS V14.01,2013-04-17 07:48:00,
2013-04-17 00:53:00,37.0,24.5,28.64,ESE,118,0.0,0.0,60,0.00,,---,0.00,VWS V14.01,2013-04-17 07:53:00,
2013-04-17 00:58:00,37.0,24.9,28.64,ESE,118,0.0,0.0,61,0.00,,---,0.00,VWS V14.01,2013-04-17 07:58:00,
2013-04-17 01:04:00,36.9,24.7,28.64,ESE,117,0.0,0.0,61,0.00,,---,0.00,VWS V14.01,2013-04-17 08:04:00,
2013-04-17 01:09:00,36.5,24.3,28.64,ESE,117,0.0,0.0,61,0.00,,---,0.00,VWS V14.01,2013-04-17 08:09:00,
2013-04-17 01:14:00,36.1,24.0,28.64,ESE,117,0.0,0.0,61,0.00,,---,0.00,VWS V14.01,2013-04-17 08:14:00,
2013-04-17 01:20:00,36.3,25.0,28.64,ESE,117,0.0,0.0,63,0.00,,---,0.00,VWS V14.01,2013-04-17 08:20:00,
2013-04-17 01:25:00,36.3,25.0,28.64,ESE,117,0.0,0.0,63,0.00,,---,0.00,VWS V14.01,2013-04-17 08:25:00,
2013-04-17 01:30:00,36.1,24.8,28.64,ESE,115,0.0,0.0,63,0.00,,---,0.00,VWS V14.01,2013-04-17 08:30:00,
2013-04-17 01:35:00,36.1,24.8,28.64,East,97,0.0,0.0,63,0.00,,---,0.00,VWS V14.01,2013-04-17 08:35:00,
2013-04-17 01:41:00,36.3,25.0,28.64,East,97,0.0,0.0,63,0.00,,---,0.00,VWS V14.01,2013-04-17 08:41:00,
2013-04-17 01:46:00,36.3,25.0,28.67,ESE,104,0.0,0.0,63,0.00,,---,0.00,VWS V14.01,2013-04-17 08:46:00,
2013-04-17 01:51:00,36.1,24.8,28.67,ESE,104,0.0,0.0,63,0.00,,---,0.00,VWS V14.01,2013-04-17 08:51:00,
2013-04-17 01:56:00,35.8,24.0,28.67,ESE,104,0.0,0.0,62,0.00,,---,0.00,VWS V14.01,2013-04-17 08:56:00,
2013-04-17 02:03:00,35.8,24.0,28.67,SE,129,0.0,0.0,62,0.00,,---,0.00,VWS V14.01,2013-04-17 09:03:00,
2013-04-17 02:08:00,35.8,24.0,28.67,SSE,165,0.0,0.0,62,0.00,,---,0.00,VWS V14.01,2013-04-17 09:08:00,
2013-04-17 02:13:00,35.6,23.5,28.67,SSE,165,0.0,0.0,61,0.00,,---,0.00,VWS V14.01,2013-04-17 09:13:00,
2013-04-17 02:19:00,35.6,23.5,28.67,SSE,165,0.0,0.0,61,0.00,,---,0.00,VWS V14.01,2013-04-17 09:19:00,
2013-04-17 02:24:00,35.1,23.4,28.64,SSE,165,0.0,0.0,62,0.00,,---,0.00,VWS V14.01,2013-04-17 09:24:00,
2013-04-17 02:29:00,35.1,23.4,28.64,SSE,165,0.0,0.0,62,0.00,,---,0.00,VWS V14.01,2013-04-17 09:29:00,
2013-04-17 02:35:00,35.1,23.4,28.64,SSE,165,0.0,0.0,62,0.00,,---,0.00,VWS V14.01,2013-04-17 09:35:00,
2013-04-17 02:40:00,35.6,24.3,28.64,SSE,165,0.0,0.0,63,0.00,,---,0.00,VWS V14.01,2013-04-17 09:40:00,
2013-04-17 02:45:00,35.6,24.3,28.64,SSE,165,0.0,0.0,63,0.00,,---,0.00,VWS V14.01,2013-04-17 09:45:00,
2013-04-17 02:50:00,35.4,24.1,28.64,SSE,165,0.0,0.0,63,0.00,,---,0.00,VWS V14.01,2013-04-17 09:50:00,
2013-04-17 02:56:00,35.4,24.1,28.64,SSE,165,0.0,0.0,63,0.00,,---,0.00,VWS V14.01,2013-04-17 09:56:00,
2013-04-17 03:01:00,35.4,24.1,28.64,SSE,165,0.0,0.0,63,0.00,,---,0.00,VWS V14.01,2013-04-17 10:01:00,
2013-04-17 03:06:00,35.6,24.3,28.64,SSE,165,0.0,0.0,63,0.00,,---,0.00,VWS V14.01,2013-04-17 10:06:00,
2013-04-17 03:12:00,35.2,23.9,28.64,SSE,165,0.0,0.0,63,0.00,,---,0.00,VWS V14.01,2013-04-17 10:12:00,
2013-04-17 03:17:00,35.2,23.9,28.64,SSE,165,0.0,0.0,63,0.00,,---,0.00,VWS V14.01,2013-04-17 10:17:00,
2013-04-17 03:22:00,35.2,23.9,28.64,SSE,165,0.0,0.0,63,0.00,,---,0.00,VWS V14.01,2013-04-17 10:22:00,
2013-04-17 03:27:00,35.1,24.1,28.64,SSE,165,0.0,0.0,64,0.00,,---,0.00,VWS V14.01,2013-04-17 10:27:00,
2013-04-17 03:33:00,35.1,24.1,28.64,SSE,165,0.0,0.0,64,0.00,,---,0.00,VWS V14.01,2013-04-17 10:33:00,
2013-04-17 03:38:00,34.9,24.0,28.64,SSE,165,0.0,0.0,64,0.00,,---,0.00,VWS V14.01,2013-04-17 10:38:00,
2013-04-17 03:43:00,34.9,24.0,28.64,SSE,149,0.0,0.0,64,0.00,,---,0.00,VWS V14.01,2013-04-17 10:43:00,
2013-04-17 03:49:00,34.9,24.0,28.64,East,79,0.0,0.0,64,0.00,,---,0.00,VWS V14.01,2013-04-17 10:49:00,
2013-04-17 03:54:00,34.9,24.0,28.64,NE,53,0.0,0.0,64,0.00,,---,0.00,VWS V14.01,2013-04-17 10:54:00,
2013-04-17 03:59:00,34.5,24.0,28.64,ENE,68,0.0,0.0,65,0.00,,---,0.00,VWS V14.01,2013-04-17 10:59:00,
2013-04-17 04:04:00,34.5,23.6,28.64,ENE,66,0.0,0.0,64,0.00,,---,0.00,VWS V14.01,2013-04-17 11:04:00,
2013-04-17 04:10:00,34.3,23.4,28.64,ENE,66,0.0,0.0,64,0.00,,---,0.00,VWS V14.01,2013-04-17 11:10:00,
2013-04-17 04:15:00,34.3,23.4,28.64,East,101,0.0,0.0,64,0.00,,---,0.00,VWS V14.01,2013-04-17 11:15:00,
2013-04-17 04:20:00,34.5,23.6,28.64,ESE,123,0.0,0.0,64,0.00,,---,0.00,VWS V14.01,2013-04-17 11:20:00,
2013-04-17 04:26:00,34.5,23.6,28.64,NE,54,0.0,0.0,64,0.00,,---,0.00,VWS V14.01,2013-04-17 11:26:00,
2013-04-17 04:31:00,34.5,23.6,28.67,ENE,78,0.0,0.0,64,0.00,,---,0.00,VWS V14.01,2013-04-17 11:31:00,
2013-04-17 04:36:00,34.5,24.0,28.67,ESE,123,3.6,3.6,65,0.00,,---,0.00,VWS V14.01,2013-04-17 11:36:00,
2013-04-17 04:41:00,34.5,24.0,28.67,ESE,105,0.0,0.0,65,0.00,,---,0.00,VWS V14.01,2013-04-17 11:41:00,
2013-04-17 04:47:00,34.5,23.6,28.67,ESE,120,0.0,0.0,64,0.00,,---,0.00,VWS V14.01,2013-04-17 11:47:00,
2013-04-17 04:52:00,34.5,23.6,28.67,SSE,153,0.0,0.0,64,0.00,,---,0.00,VWS V14.01,2013-04-17 11:52:00,
2013-04-17 04:57:00,34.5,23.6,28.67,ESE,108,4.0,4.0,64,0.00,,---,0.00,VWS V14.01,2013-04-17 11:57:00,
2013-04-17 05:02:00,34.5,23.6,28.67,ENE,66,0.0,0.0,64,0.00,,---,0.00,VWS V14.01,2013-04-17 12:02:00,
2013-04-17 05:08:00,34.5,23.2,28.67,ESE,109,2.7,2.7,63,0.00,,---,0.00,VWS V14.01,2013-04-17 12:08:00,
2013-04-17 05:13:00,34.5,23.2,28.67,ESE,109,0.0,0.0,63,0.00,,---,0.00,VWS V14.01,2013-04-17 12:13:00,
2013-04-17 05:18:00,34.5,23.2,28.67,SE,135,4.0,4.0,63,0.00,,---,0.00,VWS V14.01,2013-04-17 12:18:00,
2013-04-17 05:24:00,34.5,22.9,28.67,SE,131,2.7,4.9,62,0.00,,---,0.00,VWS V14.01,2013-04-17 12:24:00,
2013-04-17 05:29:00,34.5,22.9,28.67,SE,131,2.7,2.7,62,0.00,,---,0.00,VWS V14.01,2013-04-17 12:29:00,
2013-04-17 05:34:00,34.2,21.7,28.67,SW,225,0.0,2.7,60,0.00,,---,0.00,VWS V14.01,2013-04-17 12:34:00,
2013-04-17 05:39:00,34.0,21.6,28.67,SSE,156,2.7,2.7,60,0.00,,---,0.00,VWS V14.01,2013-04-17 12:39:00,
2013-04-17 05:45:00,34.0,21.6,28.67,SSE,156,2.7,2.7,60,0.00,,---,0.00,VWS V14.01,2013-04-17 12:45:00,
2013-04-17 05:50:00,33.8,21.0,28.67,SE,140,4.0,4.0,59,0.00,,---,0.00,VWS V14.01,2013-04-17 12:50:00,
2013-04-17 05:55:00,34.0,21.6,28.67,SE,140,4.0,4.0,60,0.00,,---,0.00,VWS V14.01,2013-04-17 12:55:00,
2013-04-17 06:00:00,34.0,21.6,28.67,SSE,149,2.7,2.7,60,0.00,,---,0.00,VWS V14.01,2013-04-17 13:00:00,
2013-04-17 06:06:00,34.0,21.6,28.67,SE,143,0.0,0.0,60,0.00,,---,0.00,VWS V14.01,2013-04-17 13:06:00,
2013-04-17 06:11:00,34.0,21.6,28.67,SSE,165,0.0,3.1,60,0.00,,---,0.00,VWS V14.01,2013-04-17 13:11:00,
2013-04-17 06:16:00,34.3,22.3,28.67,SE,144,0.0,0.0,61,0.00,,---,0.00,VWS V14.01,2013-04-17 13:16:00,
2013-04-17 06:21:00,34.3,21.9,28.67,SSW,195,0.0,0.0,60,0.00,,---,0.00,VWS V14.01,2013-04-17 13:21:00,
2013-04-17 06:27:00,34.3,21.9,28.67,SE,140,0.0,0.0,60,0.00,,---,0.00,VWS V14.01,2013-04-17 13:27:00,
2013-04-17 06:32:00,34.5,21.7,28.67,SE,128,0.0,0.0,59,0.00,,---,0.00,VWS V14.01,2013-04-17 13:32:00,
2013-04-17 06:37:00,34.5,21.7,28.67,SE,137,3.1,3.1,59,0.00,,---,0.00,VWS V14.01,2013-04-17 13:37:00,
2013-04-17 06:42:00,34.9,22.0,28.67,ESE,123,0.0,0.0,59,0.00,,---,0.00,VWS V14.01,2013-04-17 13:42:00,
2013-04-17 06:48:00,35.4,22.1,28.67,ESE,116,2.7,2.7,58,0.00,,---,0.00,VWS V14.01,2013-04-17 13:48:00,
2013-04-17 06:53:00,35.4,21.7,28.67,SE,126,0.0,3.6,57,0.00,,---,0.00,VWS V14.01,2013-04-17 13:53:00,
2013-04-17 06:58:00,35.4,21.7,28.70,SE,126,0.0,0.0,57,0.00,,---,0.00,VWS V14.01,2013-04-17 13:58:00,
2013-04-17 07:04:00,36.1,21.5,28.70,SE,124,0.0,0.0,55,0.00,,---,0.00,VWS V14.01,2013-04-17 14:04:00,
2013-04-17 07:09:00,36.9,21.8,28.70,SE,124,0.0,0.0,54,0.00,,---,0.00,VWS V14.01,2013-04-17 14:09:00,
2013-04-17 07:14:00,37.0,22.0,28.70,ESE,123,2.2,2.2,54,0.00,,---,0.00,VWS V14.01,2013-04-17 14:14:00,
2013-04-17 07:19:00,37.0,22.0,28.70,East,94,0.0,2.2,54,0.00,,---,0.00,VWS V14.01,2013-04-17 14:19:00,
2013-04-17 07:25:00,37.0,22.0,28.70,East,94,2.2,2.7,54,0.00,,---,0.00,VWS V14.01,2013-04-17 14:25:00,
2013-04-17 07:30:00,38.1,21.1,28.70,North,10,0.0,0.0,50,0.00,,---,0.00,VWS V14.01,2013-04-17 14:30:00,
2013-04-17 07:35:00,38.5,19.0,28.70,NNE,20,3.1,3.1,45,0.00,,---,0.00,VWS V14.01,2013-04-17 14:35:00,
2013-04-17 07:42:00,38.7,17.6,28.70,NNE,29,0.0,3.1,42,0.00,,---,0.00,VWS V14.01,2013-04-17 14:42:00,
2013-04-17 07:47:00,38.8,17.7,28.70,NNE,29,0.0,0.0,42,0.00,,---,0.00,VWS V14.01,2013-04-17 14:47:00,
2013-04-17 07:52:00,39.4,18.2,28.70,NNE,24,0.0,2.7,42,0.00,,---,0.00,VWS V14.01,2013-04-17 14:52:00,
2013-04-17 07:58:00,39.7,17.4,28.70,NNE,24,3.1,3.1,40,0.00,,---,0.00,VWS V14.01,2013-04-17 14:58:00,
2013-04-17 08:03:00,39.7,17.4,28.70,NNE,24,2.2,2.2,40,0.00,,---,0.00,VWS V14.01,2013-04-17 15:03:00,
2013-04-17 08:08:00,39.6,17.2,28.70,NNE,24,0.0,2.2,40,0.00,,---,0.00,VWS V14.01,2013-04-17 15:08:00,
2013-04-17 08:14:00,39.6,17.2,28.73,NNE,24,0.0,0.0,40,0.00,,---,0.00,VWS V14.01,2013-04-17 15:14:00,
2013-04-17 08:19:00,39.2,16.9,28.73,NNE,24,0.0,0.0,40,0.00,,---,0.00,VWS V14.01,2013-04-17 15:19:00,
2013-04-17 08:24:00,39.6,17.8,28.73,NNE,24,0.0,0.0,41,0.00,,---,0.00,VWS V14.01,2013-04-17 15:24:00,
2013-04-17 08:29:00,39.6,17.8,28.73,NNE,24,0.0,0.0,41,0.00,,---,0.00,VWS V14.01,2013-04-17 15:29:00,
2013-04-17 08:35:00,41.2,18.7,28.73,NNE,24,0.0,0.0,40,0.00,,---,0.00,VWS V14.01,2013-04-17 15:35:00,
2013-04-17 08:40:00,41.7,19.2,28.73,NNE,29,0.0,0.0,40,0.00,,---,0.00,VWS V14.01,2013-04-17 15:40:00,
2013-04-17 08:45:00,41.7,19.2,28.73,East,94,0.0,0.0,40,0.00,,---,0.00,VWS V14.01,2013-04-17 15:45:00,
2013-04-17 08:51:00,44.2,20.9,28.73,SSW,195,3.6,3.6,39,0.00,,---,0.00,VWS V14.01,2013-04-17 15:51:00,
2013-04-17 08:56:00,44.8,20.7,28.73,SSE,167,2.7,2.7,38,0.00,,---,0.00,VWS V14.01,2013-04-17 15:56:00,
2013-04-17 09:01:00,46.2,18.7,28.73,South,175,2.7,2.7,33,0.00,,---,0.00,VWS V14.01,2013-04-17 16:01:00,
2013-04-17 09:06:00,46.2,18.7,28.73,South,175,0.0,0.0,33,0.00,,---,0.00,VWS V14.01,2013-04-17 16:06:00,
2013-04-17 09:12:00,46.2,18.7,28.73,SSE,154,2.7,3.1,33,0.00,,---,0.00,VWS V14.01,2013-04-17 16:12:00,
2013-04-17 09:17:00,47.1,17.3,28.73,SSE,155,0.0,3.1,30,0.00,,---,0.00,VWS V14.01,2013-04-17 16:17:00,
2013-04-17 09:22:00,47.1,17.3,28.73,South,184,0.0,0.0,30,0.00,,---,0.00,VWS V14.01,2013-04-17 16:22:00,
2013-04-17 09:28:00,47.3,18.2,28.73,SSE,156,3.1,3.1,31,0.00,,---,0.00,VWS V14.01,2013-04-17 16:28:00,
2013-04-17 09:33:00,47.7,17.8,28.73,SSE,156,2.7,2.7,30,0.00,,---,0.00,VWS V14.01,2013-04-17 16:33:00,
2013-04-17 09:38:00,48.0,17.3,28.73,SSW,198,0.0,2.7,29,0.00,,---,0.00,VWS V14.01,2013-04-17 16:38:00,
2013-04-17 09:43:00,48.2,17.5,28.73,SW,234,3.6,4.0,29,0.00,,---,0.00,VWS V14.01,2013-04-17 16:43:00,
2013-04-17 09:49:00,48.6,17.0,28.73,East,90,0.0,3.6,28,0.00,,---,0.00,VWS V14.01,2013-04-17 16:49:00,
2013-04-17 09:54:00,48.4,16.8,28.73,SSE,155,0.0,0.0,28,0.00,,---,0.00,VWS V14.01,2013-04-17 16:54:00,
2013-04-17 09:59:00,48.4,16.8,28.73,South,179,2.7,2.7,28,0.00,,---,0.00,VWS V14.01,2013-04-17 16:59:00,
2013-04-17 10:05:00,48.4,16.8,28.73,SSE,164,0.0,4.9,28,0.00,,---,0.00,VWS V14.01,2013-04-17 17:05:00,
2013-04-17 10:10:00,48.4,16.8,28.73,WSW,258,0.0,0.0,28,0.00,,---,0.00,VWS V14.01,2013-04-17 17:10:00,
2013-04-17 10:15:00,49.1,17.4,28.73,SW,232,0.0,4.9,28,0.00,,---,0.00,VWS V14.01,2013-04-17 17:15:00,
2013-04-17 10:20:00,49.1,17.4,28.73,South,176,2.7,2.7,28,0.00,,---,0.00,VWS V14.01,2013-04-17 17:20:00,
2013-04-17 10:26:00,49.1,17.4,28.73,South,178,0.0,2.2,28,0.00,,---,0.00,VWS V14.01,2013-04-17 17:26:00,
2013-04-17 10:31:00,50.0,18.2,28.73,SE,146,3.1,3.6,28,0.00,,---,0.00,VWS V14.01,2013-04-17 17:31:00,
2013-04-17 10:36:00,51.1,18.3,28.73,South,187,4.0,4.0,27,0.00,,---,0.00,VWS V14.01,2013-04-17 17:36:00,
2013-04-17 10:42:00,51.3,17.6,28.73,WSW,258,0.0,2.7,26,0.00,,---,0.00,VWS V14.01,2013-04-17 17:42:00,
2013-04-17 10:47:00,51.4,17.7,28.73,NNW,330,2.7,2.7,26,0.00,,---,0.00,VWS V14.01,2013-04-17 17:47:00,
2013-04-17 10:52:00,50.4,16.8,28.73,NW,314,0.0,2.7,26,0.00,,---,0.00,VWS V14.01,2013-04-17 17:52:00,
2013-04-17 10:57:00,51.4,18.6,28.73,SE,144,4.0,4.9,27,0.00,,---,0.00,VWS V14.01,2013-04-17 17:57:00,
2013-04-17 11:03:00,52.0,18.2,28.73,South,169,2.2,2.2,26,0.00,,---,0.00,VWS V14.01,2013-04-17 18:03:00,
2013-04-17 11:08:00,53.1,16.3,28.73,WNW,299,0.0,0.0,23,0.00,,---,0.00,VWS V14.01,2013-04-17 18:08:00,
2013-04-17 11:14:00,53.1,16.3,28.73,NW,316,3.1,3.1,23,0.00,,---,0.00,VWS V14.01,2013-04-17 18:14:00,
2013-04-17 11:19:00,53.1,16.3,28.73,NW,320,2.2,2.2,23,0.00,,---,0.00,VWS V14.01,2013-04-17 18:19:00,
2013-04-17 11:24:00,50.9,17.2,28.73,NNW,340,2.7,3.1,26,0.00,,---,0.00,VWS V14.01,2013-04-17 18:24:00,
2013-04-17 11:29:00,50.7,17.1,28.73,WNW,282,0.0,2.7,26,0.00,,---,0.00,VWS V14.01,2013-04-17 18:29:00,
2013-04-17 11:35:00,50.4,14.9,28.73,North,0,0.0,0.0,24,0.00,,---,0.00,VWS V14.01,2013-04-17 18:35:00,
2013-04-17 11:40:00,50.4,14.9,28.73,West,278,0.0,2.7,24,0.00,,---,0.00,VWS V14.01,2013-04-17 18:40:00,
2013-04-17 11:45:00,51.8,15.2,28.73,WNW,303,2.2,2.2,23,0.00,,---,0.00,VWS V14.01,2013-04-17 18:45:00,
2013-04-17 11:51:00,52.0,15.4,28.73,NW,313,2.2,3.1,23,0.00,,---,0.00,VWS V14.01,2013-04-17 18:51:00,
2013-04-17 11:57:00,51.8,15.2,28.73,NW,319,2.7,2.7,23,0.00,,---,0.00,VWS V14.01,2013-04-17 18:57:00,
2013-04-17 12:02:00,51.8,15.2,28.73,NW,319,2.7,2.7,23,0.00,,---,0.00,VWS V14.01,2013-04-17 19:02:00,
2013-04-17 12:08:00,52.5,15.8,28.73,NW,315,0.0,0.0,23,0.00,,---,0.00,VWS V14.01,2013-04-17 19:08:00,
2013-04-17 12:13:00,52.9,14.0,28.73,North,0,3.6,3.6,21,0.00,,---,0.00,VWS V14.01,2013-04-17 19:13:00,
2013-04-17 12:18:00,53.1,10.7,28.73,North,0,3.6,3.6,18,0.00,,---,0.00,VWS V14.01,2013-04-17 19:18:00,
2013-04-17 12:23:00,54.5,14.3,28.73,NNW,335,5.4,5.4,20,0.00,,---,0.00,VWS V14.01,2013-04-17 19:23:00,
2013-04-17 12:29:00,54.7,14.4,28.73,WNW,291,2.7,2.7,20,0.00,,---,0.00,VWS V14.01,2013-04-17 19:29:00,
2013-04-17 12:34:00,53.6,13.5,28.73,WSW,257,0.0,2.7,20,0.00,,---,0.00,VWS V14.01,2013-04-17 19:34:00,
2013-04-17 12:39:00,53.8,13.7,28.73,NNE,18,4.9,4.9,20,0.00,,---,0.00,VWS V14.01,2013-04-17 19:39:00,
2013-04-17 12:45:00,54.7,12.0,28.73,NNE,18,4.9,4.9,18,0.00,,---,0.00,VWS V14.01,2013-04-17 19:45:00,
2013-04-17 12:50:00,54.0,11.4,28.73,South,173,0.0,4.9,18,0.00,,---,0.00,VWS V14.01,2013-04-17 19:50:00,
2013-04-17 12:55:00,54.0,11.4,28.73,ENE,66,0.0,0.0,18,0.00,,---,0.00,VWS V14.01,2013-04-17 19:55:00,
2013-04-17 13:00:00,53.8,11.3,28.73,ESE,107,2.2,2.2,18,0.00,,---,0.00,VWS V14.01,2013-04-17 20:00:00,
2013-04-17 13:06:00,53.4,14.5,28.73,NE,36,5.4,5.4,21,0.00,,---,0.00,VWS V14.01,2013-04-17 20:06:00,
2013-04-17 13:11:00,53.4,14.5,28.73,NE,36,5.4,5.4,21,0.00,,---,0.00,VWS V14.01,2013-04-17 20:11:00,
2013-04-17 13:16:00,53.8,11.3,28.73,NW,316,4.0,4.0,18,0.00,,---,0.00,VWS V14.01,2013-04-17 20:16:00,
2013-04-17 13:22:00,53.4,11.0,28.73,West,264,0.0,0.0,18,0.00,,---,0.00,VWS V14.01,2013-04-17 20:22:00,
2013-04-17 13:27:00,54.9,12.2,28.73,East,95,0.0,0.0,18,0.00,,---,0.00,VWS V14.01,2013-04-17 20:27:00,
2013-04-17 13:32:00,55.8,11.6,28.73,ESE,114,2.2,2.7,17,0.00,,---,0.00,VWS V14.01,2013-04-17 20:32:00,
2013-04-17 13:38:00,55.8,11.6,28.73,ESE,114,2.2,2.2,17,0.00,,---,0.00,VWS V14.01,2013-04-17 20:38:00,
2013-04-17 13:43:00,55.4,8.5,28.70,NW,305,2.7,2.7,15,0.00,,---,0.00,VWS V14.01,2013-04-17 20:43:00,
2013-04-17 13:48:00,55.4,8.5,28.70,WSW,257,0.0,0.0,15,0.00,,---,0.00,VWS V14.01,2013-04-17 20:48:00,
2013-04-17 13:53:00,54.9,8.1,28.70,North,353,5.4,5.4,15,0.00,,---,0.00,VWS V14.01,2013-04-17 20:53:00,
2013-04-17 13:59:00,54.5,7.8,28.70,NE,55,5.4,5.4,15,0.00,,---,0.00,VWS V14.01,2013-04-17 20:59:00,
2013-04-17 14:04:00,55.0,8.2,28.70,West,272,3.6,5.4,15,0.00,,---,0.00,VWS V14.01,2013-04-17 21:04:00,
2013-04-17 14:09:00,55.2,8.4,28.70,WNW,286,2.7,3.6,15,0.00,,---,0.00,VWS V14.01,2013-04-17 21:09:00,
2013-04-17 14:15:00,55.9,9.0,28.70,SE,141,5.4,5.4,15,0.00,,---,0.00,VWS V14.01,2013-04-17 21:15:00,
2013-04-17 14:20:00,55.9,9.0,28.70,North,353,3.6,5.4,15,0.00,,---,0.00,VWS V14.01,2013-04-17 21:20:00,
2013-04-17 14:25:00,55.8,8.8,28.70,WSW,240,0.0,3.6,15,0.00,,---,0.00,VWS V14.01,2013-04-17 21:25:00,
2013-04-17 14:30:00,56.3,9.3,28.70,NW,322,3.1,3.1,15,0.00,,---,0.00,VWS V14.01,2013-04-17 21:30:00,
2013-04-17 14:36:00,54.5,7.8,28.70,NNW,331,2.2,2.2,15,0.00,,---,0.00,VWS V14.01,2013-04-17 21:36:00,
2013-04-17 14:42:00,54.1,7.5,28.70,NW,320,2.7,2.7,15,0.00,,---,0.00,VWS V14.01,2013-04-17 21:42:00,
2013-04-17 14:47:00,54.5,7.8,28.70,North,7,5.4,5.4,15,0.00,,---,0.00,VWS V14.01,2013-04-17 21:47:00,
2013-04-17 14:53:00,53.8,7.2,28.70,NNW,341,4.0,5.4,15,0.00,,---,0.00,VWS V14.01,2013-04-17 21:53:00,
2013-04-17 14:58:00,53.4,8.4,28.70,NW,326,2.2,4.0,16,0.00,,---,0.00,VWS V14.01,2013-04-17 21:58:00,
2013-04-17 15:03:00,53.4,8.4,28.70,ESE,119,2.7,2.7,16,0.00,,---,0.00,VWS V14.01,2013-04-17 22:03:00,
2013-04-17 15:09:00,54.5,7.8,28.70,NW,322,5.4,5.4,15,0.00,,---,0.00,VWS V14.01,2013-04-17 22:09:00,
2013-04-17 15:14:00,54.5,7.8,28.70,NW,305,2.7,6.3,15,0.00,,---,0.00,VWS V14.01,2013-04-17 22:14:00,
2013-04-17 15:20:00,54.9,5.0,28.70,SSE,155,5.8,5.8,13,0.00,,---,0.00,VWS V14.01,2013-04-17 22:20:00,
2013-04-17 15:25:00,54.9,5.0,28.70,SSE,160,2.2,5.8,13,0.00,,---,0.00,VWS V14.01,2013-04-17 22:25:00,
2013-04-17 15:30:00,54.9,5.0,28.70,WNW,291,3.1,3.1,13,0.00,,---,0.00,VWS V14.01,2013-04-17 22:30:00,
2013-04-17 15:35:00,54.1,4.4,28.70,North,353,0.0,3.1,13,0.00,,---,0.00,VWS V14.01,2013-04-17 22:35:00,
2013-04-17 15:41:00,54.9,5.0,28.70,NNE,28,2.7,3.6,13,0.00,,---,0.00,VWS V14.01,2013-04-17 22:41:00,
2013-04-17 15:46:00,54.9,5.0,28.70,NNW,343,5.8,5.8,13,0.00,,---,0.00,VWS V14.01,2013-04-17 22:46:00,
2013-04-17 15:52:00,54.5,4.7,28.70,North,0,4.0,4.0,13,0.00,,---,0.00,VWS V14.01,2013-04-17 22:52:00,
2013-04-17 15:57:00,54.0,4.2,28.70,NNE,31,3.1,6.3,13,0.00,,---,0.00,VWS V14.01,2013-04-17 22:57:00,
2013-04-17 16:02:00,53.6,4.0,28.70,North,6,0.0,3.1,13,0.00,,---,0.00,VWS V14.01,2013-04-17 23:02:00,
2013-04-17 16:07:00,53.4,3.8,28.70,NW,319,5.4,5.4,13,0.00,,---,0.00,VWS V14.01,2013-04-17 23:07:00,
2013-04-17 16:13:00,53.4,3.8,28.70,SSE,159,0.0,0.0,13,0.00,,---,0.00,VWS V14.01,2013-04-17 23:13:00,
2013-04-17 16:18:00,53.6,4.0,28.70,SSE,152,0.0,0.0,13,0.00,,---,0.00,VWS V14.01,2013-04-17 23:18:00,
2013-04-17 16:23:00,53.6,4.0,28.70,NW,323,2.7,5.8,13,0.00,,---,0.00,VWS V14.01,2013-04-17 23:23:00,
2013-04-17 16:28:00,52.9,3.4,28.70,NNE,16,3.6,3.6,13,0.00,,---,0.00,VWS V14.01,2013-04-17 23:28:00,
2013-04-17 16:34:00,52.9,3.4,28.70,NNE,17,4.9,4.9,13,0.00,,---,0.00,VWS V14.01,2013-04-17 23:34:00,
2013-04-17 16:39:00,52.9,3.4,28.70,NW,325,4.0,4.0,13,0.00,,---,0.00,VWS V14.01,2013-04-17 23:39:00,
2013-04-17 16:44:00,52.7,3.2,28.70,North,357,0.0,4.0,13,0.00,,---,0.00,VWS V14.01,2013-04-17 23:44:00,
2013-04-17 16:50:00,52.5,3.1,28.70,NNW,338,3.1,3.1,13,0.00,,---,0.00,VWS V14.01,2013-04-17 23:50:00,
2013-04-17 16:55:00,52.7,3.2,28.70,ENE,73,0.0,3.1,13,0.00,,---,0.00,VWS V14.01,2013-04-17 23:55:00,
2013-04-17 17:00:00,52.7,3.2,28.70,ENE,73,0.0,0.0,13,0.00,,---,0.00,VWS V14.01,2013-04-18 00:00:00,
2013-04-17 17:05:00,52.7,3.2,28.70,North,353,3.6,3.6,13,0.00,,---,0.00,VWS V14.01,2013-04-18 00:05:00,
2013-04-17 17:11:00,54.5,4.7,28.70,North,357,5.8,5.8,13,0.00,,---,0.00,VWS V14.01,2013-04-18 00:11:00,
2013-04-17 17:16:00,54.5,4.7,28.70,North,357,5.8,5.8,13,0.00,,---,0.00,VWS V14.01,2013-04-18 00:16:00,
2013-04-17 17:21:00,54.3,4.5,28.70,SE,124,3.1,3.1,13,0.00,,---,0.00,VWS V14.01,2013-04-18 00:21:00,
2013-04-17 17:27:00,54.3,4.5,28.70,SE,124,3.1,3.1,13,0.00,,---,0.00,VWS V14.01,2013-04-18 00:27:00,
2013-04-17 17:32:00,54.3,4.5,28.70,ESE,103,0.0,0.0,13,0.00,,---,0.00,VWS V14.01,2013-04-18 00:32:00,
2013-04-17 17:38:00,53.4,3.8,28.70,NNW,328,0.0,0.0,13,0.00,,---,0.00,VWS V14.01,2013-04-18 00:38:00,
2013-04-17 17:43:00,53.2,3.7,28.70,NNW,328,0.0,0.0,13,0.00,,---,0.00,VWS V14.01,2013-04-18 00:43:00,
2013-04-17 17:48:00,53.2,3.7,28.70,NW,325,0.0,0.0,13,0.00,,---,0.00,VWS V14.01,2013-04-18 00:48:00,
2013-04-17 17:53:00,53.2,3.7,28.70,NW,325,0.0,0.0,13,0.00,,---,0.00,VWS V14.01,2013-04-18 00:53:00,
2013-04-17 17:59:00,52.3,7.5,28.70,WNW,289,0.0,0.0,16,0.00,,---,0.00,VWS V14.01,2013-04-18 00:59:00,
2013-04-17 18:04:00,52.0,7.2,28.70,SE,126,0.0,0.0,16,0.00,,---,0.00,VWS V14.01,2013-04-18 01:04:00,
2013-04-17 18:09:00,50.7,10.0,28.70,SE,126,0.0,0.0,19,0.00,,---,0.00,VWS V14.01,2013-04-18 01:09:00,
2013-04-17 18:15:00,50.7,10.0,28.70,NW,308,0.0,3.1,19,0.00,,---,0.00,VWS V14.01,2013-04-18 01:15:00,
2013-04-17 18:20:00,50.7,10.0,28.70,NW,308,0.0,0.0,19,0.00,,---,0.00,VWS V14.01,2013-04-18 01:20:00,
2013-04-17 18:25:00,49.6,17.0,28.70,ENE,60,0.0,0.0,27,0.00,,---,0.00,VWS V14.01,2013-04-18 01:25:00,
2013-04-17 18:30:00,49.6,17.0,28.70,SE,124,0.0,0.0,27,0.00,,---,0.00,VWS V14.01,2013-04-18 01:30:00,
2013-04-17 18:35:00,49.3,16.7,28.70,SE,124,0.0,0.0,27,0.00,,---,0.00,VWS V14.01,2013-04-18 01:35:00,
2013-04-17 18:40:00,49.3,16.7,28.70,ESE,103,0.0,0.0,27,0.00,,---,0.00,VWS V14.01,2013-04-18 01:40:00,
2013-04-17 18:46:00,49.3,16.7,28.70,ESE,103,0.0,0.0,27,0.00,,---,0.00,VWS V14.01,2013-04-18 01:46:00,
2013-04-17 18:52:00,48.7,17.1,28.70,ESE,103,0.0,0.0,28,0.00,,---,0.00,VWS V14.01,2013-04-18 01:52:00,
2013-04-17 18:57:00,48.7,17.1,28.70,ESE,103,0.0,0.0,28,0.00,,---,0.00,VWS V14.01,2013-04-18 01:57:00,
2013-04-17 19:02:00,48.6,17.8,28.70,ESE,103,0.0,0.0,29,0.00,,---,0.00,VWS V14.01,2013-04-18 02:02:00,
2013-04-17 19:08:00,48.6,17.8,28.70,ESE,103,0.0,0.0,29,0.00,,---,0.00,VWS V14.01,2013-04-18 02:08:00,
2013-04-17 19:13:00,48.4,17.6,28.70,ESE,103,0.0,0.0,29,0.00,,---,0.00,VWS V14.01,2013-04-18 02:13:00,
2013-04-17 19:18:00,48.4,17.6,28.70,ESE,103,0.0,0.0,29,0.00,,---,0.00,VWS V14.01,2013-04-18 02:18:00,
2013-04-17 19:24:00,48.4,17.6,28.70,ESE,103,0.0,0.0,29,0.00,,---,0.00,VWS V14.01,2013-04-18 02:24:00,
2013-04-17 19:29:00,48.0,17.3,28.70,ESE,103,0.0,0.0,29,0.00,,---,0.00,VWS V14.01,2013-04-18 02:29:00,
2013-04-17 19:34:00,47.8,17.1,28.70,ESE,103,0.0,0.0,29,0.00,,---,0.00,VWS V14.01,2013-04-18 02:34:00,
2013-04-17 19:40:00,47.8,17.1,28.70,ESE,103,0.0,0.0,29,0.00,,---,0.00,VWS V14.01,2013-04-18 02:40:00,
2013-04-17 19:45:00,47.8,17.1,28.70,ESE,103,0.0,0.0,29,0.00,,---,0.00,VWS V14.01,2013-04-18 02:45:00,
2013-04-17 19:50:00,47.8,17.1,28.70,ESE,103,0.0,0.0,29,0.00,,---,0.00,VWS V14.01,2013-04-18 02:50:00,
2013-04-17 19:55:00,47.5,17.6,28.70,ESE,103,0.0,0.0,30,0.00,,---,0.00,VWS V14.01,2013-04-18 02:55:00,
2013-04-17 20:00:00,47.3,19.0,28.70,ESE,103,0.0,0.0,32,0.00,,---,0.00,VWS V14.01,2013-04-18 03:00:00,
2013-04-17 20:05:00,47.1,18.8,28.70,ESE,103,0.0,0.0,32,0.00,,---,0.00,VWS V14.01,2013-04-18 03:05:00,
2013-04-17 20:10:00,47.1,18.8,28.70,ESE,103,0.0,0.0,32,0.00,,---,0.00,VWS V14.01,2013-04-18 03:10:00,
2013-04-17 20:17:00,46.8,19.9,28.70,ESE,103,0.0,0.0,34,0.00,,---,0.00,VWS V14.01,2013-04-18 03:17:00,
2013-04-17 20:22:00,46.8,19.9,28.70,ESE,103,0.0,0.0,34,0.00,,---,0.00,VWS V14.01,2013-04-18 03:22:00,
2013-04-17 20:28:00,46.6,20.4,28.70,ESE,103,0.0,0.0,35,0.00,,---,0.00,VWS V14.01,2013-04-18 03:28:00,
2013-04-17 20:33:00,46.6,20.4,28.70,ESE,103,0.0,0.0,35,0.00,,---,0.00,VWS V14.01,2013-04-18 03:33:00,
2013-04-17 20:38:00,46.6,20.4,28.70,ESE,103,0.0,0.0,35,0.00,,---,0.00,VWS V14.01,2013-04-18 03:38:00,
2013-04-17 20:44:00,46.2,21.4,28.70,ESE,103,0.0,0.0,37,0.00,,---,0.00,VWS V14.01,2013-04-18 03:44:00,
2013-04-17 20:49:00,46.2,21.4,28.70,ESE,103,0.0,0.0,37,0.00,,---,0.00,VWS V14.01,2013-04-18 03:49:00,
2013-04-17 20:54:00,46.0,21.9,28.70,SSW,198,0.0,2.7,38,0.00,,---,0.00,VWS V14.01,2013-04-18 03:54:00,
2013-04-17 20:59:00,45.9,21.7,28.70,SSE,162,0.0,0.0,38,0.00,,---,0.00,VWS V14.01,2013-04-18 03:59:00,
2013-04-17 21:01:00,45.9,21.7,28.70,SSE,162,0.0,0.0,38,0.00,,---,0.00,VWS V14.01,2013-04-18 04:01:00,
2013-04-17 21:02:00,45.9,21.7,28.70,SSE,162,0.0,0.0,38,0.00,,---,0.00,VWS V14.01,2013-04-18 04:02:00,
2013-04-17 21:04:00,45.9,21.7,28.70,SSE,162,0.0,0.0,38,0.00,,---,0.00,VWS V14.01,2013-04-18 04:04:00,
2013-04-17 21:05:00,45.9,21.7,28.70,SSE,162,0.0,0.0,38,0.00,,---,0.00,VWS V14.01,2013-04-18 04:05:00,
2013-04-17 21:10:00,45.7,21.5,28.70,SW,233,0.0,0.0,38,0.00,,---,0.00,VWS V14.01,2013-04-18 04:10:00,
2013-04-17 21:15:00,45.7,21.5,28.70,SW,233,0.0,0.0,38,0.00,,---,0.00,VWS V14.01,2013-04-18 04:15:00,
2013-04-17 21:20:00,45.5,20.8,28.70,SW,233,0.0,0.0,37,0.00,,---,0.00,VWS V14.01,2013-04-18 04:20:00,
2013-04-17 21:26:00,45.7,20.9,28.70,SW,233,0.0,0.0,37,0.00,,---,0.00,VWS V14.01,2013-04-18 04:26:00,
2013-04-17 21:31:00,45.5,20.8,28.70,SW,233,0.0,0.0,37,0.00,,---,0.00,VWS V14.01,2013-04-18 04:31:00,
2013-04-17 21:36:00,45.5,20.8,28.70,SW,233,0.0,0.0,37,0.00,,---,0.00,VWS V14.01,2013-04-18 04:36:00,
2013-04-17 21:42:00,45.3,20.6,28.70,SW,233,0.0,0.0,37,0.00,,---,0.00,VWS V14.01,2013-04-18 04:42:00,
2013-04-17 21:47:00,45.3,20.6,28.70,SW,229,0.0,0.0,37,0.00,,---,0.00,VWS V14.01,2013-04-18 04:47:00,
2013-04-17 21:52:00,45.3,20.6,28.70,ESE,116,0.0,0.0,37,0.00,,---,0.00,VWS V14.01,2013-04-18 04:52:00,
2013-04-17 21:58:00,45.1,20.4,28.70,ESE,116,0.0,0.0,37,0.00,,---,0.00,VWS V14.01,2013-04-18 04:58:00,
2013-04-17 22:03:00,45.0,20.3,28.70,ESE,116,0.0,0.0,37,0.00,,---,0.00,VWS V14.01,2013-04-18 05:03:00,
2013-04-17 22:08:00,45.0,20.3,28.70,ENE,65,0.0,0.0,37,0.00,,---,0.00,VWS V14.01,2013-04-18 05:08:00,
2013-04-17 22:13:00,44.8,20.1,28.70,ENE,65,0.0,0.0,37,0.00,,---,0.00,VWS V14.01,2013-04-18 05:13:00,
2013-04-17 22:19:00,44.6,20.6,28.70,ENE,65,0.0,0.0,38,0.00,,---,0.00,VWS V14.01,2013-04-18 05:19:00,
2013-04-17 22:24:00,44.6,20.6,28.70,ESE,115,0.0,0.0,38,0.00,,---,0.00,VWS V14.01,2013-04-18 05:24:00,
2013-04-17 22:29:00,44.4,21.0,28.70,ESE,114,0.0,0.0,39,0.00,,---,0.00,VWS V14.01,2013-04-18 05:29:00,
2013-04-17 22:35:00,44.2,20.9,28.70,ESE,114,0.0,0.0,39,0.00,,---,0.00,VWS V14.01,2013-04-18 05:35:00,
2013-04-17 22:40:00,44.2,20.9,28.70,ESE,114,0.0,0.0,39,0.00,,---,0.00,VWS V14.01,2013-04-18 05:40:00,
2013-04-17 22:45:00,44.1,21.3,28.70,SE,138,0.0,0.0,40,0.00,,---,0.00,VWS V14.01,2013-04-18 05:45:00,
2013-04-17 22:51:00,44.1,21.3,28.70,SE,138,0.0,0.0,40,0.00,,---,0.00,VWS V14.01,2013-04-18 05:51:00,
2013-04-17 22:56:00,43.9,21.1,28.70,SE,138,0.0,0.0,40,0.00,,---,0.00,VWS V14.01,2013-04-18 05:56:00,
2013-04-17 23:01:00,43.7,21.0,28.70,SE,138,0.0,0.0,40,0.00,,---,0.00,VWS V14.01,2013-04-18 06:01:00,
2013-04-17 23:07:00,43.5,20.8,28.70,SE,138,0.0,0.0,40,0.00,,---,0.00,VWS V14.01,2013-04-18 06:07:00,
2013-04-17 23:12:00,43.3,20.6,28.70,SE,138,0.0,0.0,40,0.00,,---,0.00,VWS V14.01,2013-04-18 06:12:00,
2013-04-17 23:17:00,43.0,20.9,28.70,SE,138,0.0,0.0,41,0.00,,---,0.00,VWS V14.01,2013-04-18 06:17:00,
2013-04-17 23:22:00,42.8,20.8,28.70,SE,138,0.0,0.0,41,0.00,,---,0.00,VWS V14.01,2013-04-18 06:22:00,
2013-04-17 23:28:00,42.6,21.7,28.70,SE,138,0.0,0.0,43,0.00,,---,0.00,VWS V14.01,2013-04-18 06:28:00,
2013-04-17 23:33:00,42.6,21.7,28.70,SE,138,0.0,0.0,43,0.00,,---,0.00,VWS V14.01,2013-04-18 06:33:00,
2013-04-17 23:38:00,42.6,21.7,28.70,SE,138,0.0,0.0,43,0.00,,---,0.00,VWS V14.01,2013-04-18 06:38:00,
2013-04-17 23:44:00,42.3,21.9,28.70,SE,138,0.0,0.0,44,0.00,,---,0.00,VWS V14.01,2013-04-18 06:44:00,
2013-04-17 23:49:00,42.3,22.5,28.70,SE,138,0.0,0.0,45,0.00,,---,0.00,VWS V14.01,2013-04-18 06:49:00,
2013-04-17 23:54:00,42.3,22.5,28.70,SE,138,0.0,0.0,45,0.00,,---,0.00,VWS V14.01,2013-04-18 06:54:00,